Temp
80 83 75 77 77 77 77 77 76 76 76 76 76 76 76 76 76 76 77 77 77 78 78 78 78 77 76 75 75 74 74 73 73 74 75 75 75 75 75 74 75 77 74
82 84 74 76 76 77 76 76 76 76 76 76 76 76 76 76 76 77 77 76 77 77 77 77 77 76 75 75 74 74 73 73 72 73 74 74 74 74 74 73 74 76 74
82 82 80 74 75 76 76 75 75 76 76 76 76 76 76 76 76 76 77 76 76 76 76 76 76 76 74 74 74 74 73 72 72 72 74 80 77 74 74 73 73 74 74
82 82 83 72 74 75 75 75 75 76 76 76 76 76 76 76 76 77 76 76 76 76 76 76 76 74 74 74 74 74 73 72 71 73 80 80 79 73 73 73 73 73 74
82 83 81 73 74 75 75 75 75 76 76 76 76 76 76 76 76 76 76 76 76 75 75 76 74 74 73 73 74 73 72 71 71 76 79 79 78 74 72 72 73 72 73
82 82 74 73 75 75 75 75 75 75 76 76 75 75 75 76 75 76 75 75 75 75 75 75 73 73 72 72 73 73 72 71 72 79 79 76 77 72 72 71 71 71 72
81 82 80 72 73 74 74 75 75 75 75 75 76 75 75 75 75 75 75 75 74 75 74 74 72 71 71 71 72 72 71 70 77 77 77 77 76 72 71 71 71 72 72
81 80 81 70 70 72 73 74 74 74 75 75 75 74 74 74 74 74 75 75 74 74 74 73 71 71 71 71 71 71 69 69 75 78 77 79 71 71 71 71 71 71 71
81 80 80 80 75 67 70 71 72 73 73 73 74 74 73 72 73 73 73 74 74 74 73 72 70 70 70 70 70 69 68 67 79 80 78 79 70 71 71 70 70 71 71
80 80 80 80 80 80 79 67 68 70 70 71 71 70 69 69 70 70 69 71 73 72 73 71 70 70 70 69 69 66 65 66 79 77 78 78 70 71 71 70 70 70 70
76 76 79 79 79 80 79 76 66 66 67 67 69 66 67 78 78 73 69 69 71 71 71 70 70 69 68 67 66 65 63 78 78 78 78 68 70 71 70 70 69 69 69
75 74 77 78 79 79 79 78 77 78 78 78 77 77 78 78 78 77 69 65 68 68 69 70 69 67 65 76 75 66 76 77 77 77 77 67 69 71 71 70 69 69 69
79 78 76 76 77 78 78 78 78 78 77 77 77 77 77 76 76 75 77 75 75 66 75 73 73 74 74 74 75 75 75 75 76 76 72 65 68 71 71 70 69 69 69
77 78 79 79 75 73 78 78 78 77 77 76 76 75 75 74 74 75 75 75 74 76 75 75 74 74 73 73 72 73 74 74 75 74 73 61 65 69 71 71 70 69 69
78 79 80 79 78 75 72 78 78 78 77 77 77 76 75 74 73 74 74 75 75 75 75 74 74 73 72 72 72 72 72 73 73 74 74 59 61 66 70 72 71 70 70
80 80 82 80 79 79 77 75 76 75 77 77 77 76 75 75 74 73 73 73 73 74 75 74 73 73 72 72 72 72 71 72 73 73 74 73 60 63 67 70 72 71 71
79 80 80 80 80 78 78 77 77 75 75 75 76 76 75 74 74 73 73 73 73 73 72 73 72 72 72 72 70 71 71 71 72 72 72 72 71 59 63 67 70 72 71
78 78 79 78 78 78 78 78 78 78 76 76 76 75 74 74 74 74 73 73 74 73 72 71 71 70 70 70 70 71 71 71 71 71 72 71 71 72 65 63 66 69 71
76 77 77 78 77 78 78 78 78 77 75 72 74 74 73 73 74 73 73 73 73 72 71 71 70 70 69 69 69 70 71 71 70 71 70 70 71 70 72 66 61 63 66
74 74 75 76 76 77 77 77 77 76 73 72 71 71 71 70 71 72 73 73 73 71 70 70 69 70 68 69 69 69 70 71 70 70 70 71 70 71 70 70 68 64 61
70 69 71 72 74 76 75 74 74 74 73 73 71 70 70 69 67 70 72 73 72 69 70 71 70 67 66 65 62 62 66 70 69 70 70 70 71 71 70 69 67 67 68
65 66 67 68 71 73 75 75 76 76 76 76 76 73 71 69 67 66 68 69 70 67 68 69 67 66 65 67 58 58 55 66 71 70 70 70 70 72 70 68 68 66 68
62 62 64 65 67 69 72 74 74 74 74 73 73 73 71 69 67 66 66 67 68 66 64 66 67 63 62 64 63 62 56 59 66 71 68 69 69 69 70 68 67 66 68
59 61 63 63 63 65 69 70 70 71 70 74 74 74 73 72 70 68 67 66 66 66 63 64 65 64 62 60 59 61 65 67 62 62 68 66 67 67 67 69 68 68 68
57 58 59 61 60 61 63 66 68 68 70 72 72 71 71 72 72 71 69 67 65 66 65 64 63 61 62 61 60 57 57 59 61 57 56 63 66 67 68 69 69 68 67
56 56 57 58 57 58 60 61 61 61 63 62 62 64 68 70 71 70 71 70 68 66 65 64 63 62 61 61 61 61 59 56 55 55 54 58 62 65 67 68 69 67 66
MSLP
1019.29 1019.43 1020.15 1020.26 1020.38 1020.57 1020.72 1020.98 1021.16 1021.28 1021.30 1021.23 1021.31 1021.37 1021.43 1021.40 1021.30 1021.20 1021.04 1021.01 1021.06 1021.17 1021.33 1021.32 1021.26 1021.36 1021.47 1021.47 1021.54 1021.48 1021.47 1021.39 1021.32 1021.33 1021.26 1021.25 1021.33 1021.38 1021.47 1021.38 1021.14 1021.18 1021.31
1019.31 1019.54 1020.33 1020.47 1020.65 1020.75 1020.90 1021.09 1021.25 1021.42 1021.55 1021.60 1021.54 1021.60 1021.70 1021.74 1021.67 1021.53 1021.52 1021.61 1021.48 1021.48 1021.55 1021.69 1021.58 1021.64 1021.71 1021.68 1021.76 1021.80 1021.82 1021.75 1021.78 1021.76 1021.56 1021.60 1021.76 1021.82 1021.77 1021.76 1021.59 1021.63 1021.64
1019.49 1019.83 1020.31 1020.62 1020.74 1021.00 1021.17 1021.38 1021.50 1021.55 1021.63 1021.82 1021.88 1021.81 1021.85 1021.94 1021.99 1021.92 1021.88 1021.88 1021.92 1021.86 1021.88 1022.01 1021.92 1021.79 1022.00 1021.94 1022.02 1022.06 1022.10 1022.03 1022.06 1022.00 1021.72 1021.41 1021.84 1022.05 1022.05 1022.03 1021.97 1021.93 1021.93
1019.42 1019.81 1020.11 1020.89 1020.92 1021.13 1021.44 1021.58 1021.71 1021.81 1021.86 1021.87 1021.99 1022.07 1022.07 1022.13 1022.16 1022.18 1022.31 1022.27 1022.23 1022.19 1022.21 1022.22 1022.11 1022.16 1022.12 1022.09 1022.08 1022.20 1022.24 1022.24 1022.25 1021.92 1021.55 1021.70 1021.77 1022.37 1022.37 1022.29 1022.29 1022.26 1022.19
1019.51 1019.75 1020.11 1020.71 1021.11 1021.22 1021.42 1021.60 1021.83 1021.91 1022.02 1022.10 1022.07 1022.14 1022.34 1022.42 1022.33 1022.29 1022.50 1022.56 1022.57 1022.55 1022.50 1022.37 1022.48 1022.42 1022.36 1022.21 1022.17 1022.24 1022.30 1022.38 1022.29 1021.83 1021.83 1021.95 1022.07 1022.57 1022.68 1022.66 1022.63 1022.63 1022.43
1019.63 1019.97 1020.59 1020.76 1020.94 1021.16 1021.34 1021.59 1021.73 1021.85 1022.03 1022.16 1022.23 1022.31 1022.34 1022.56 1022.69 1022.63 1022.72 1022.69 1022.72 1022.80 1022.72 1022.66 1022.69 1022.72 1022.67 1022.54 1022.37 1022.40 1022.50 1022.50 1022.27 1021.98 1022.06 1022.32 1022.37 1022.89 1022.93 1022.98 1022.98 1022.88 1022.72
1019.78 1020.04 1020.48 1020.95 1021.12 1021.32 1021.41 1021.52 1021.66 1021.78 1021.92 1022.07 1022.16 1022.29 1022.41 1022.59 1022.70 1022.82 1022.97 1022.96 1022.97 1022.91 1022.94 1022.94 1023.04 1023.01 1022.95 1022.81 1022.54 1022.51 1022.67 1022.66 1022.31 1022.32 1022.30 1022.33 1022.61 1022.99 1023.02 1023.03 1023.06 1022.96 1022.92
1019.95 1020.25 1020.45 1021.02 1021.20 1021.36 1021.49 1021.56 1021.68 1021.71 1021.79 1021.95 1022.11 1022.26 1022.41 1022.58 1022.85 1022.89 1022.95 1023.03 1023.18 1023.19 1023.17 1023.17 1023.30 1023.32 1023.24 1023.07 1022.85 1022.84 1022.81 1022.63 1022.31 1022.12 1022.27 1022.30 1022.98 1023.06 1023.15 1023.17 1023.18 1023.08 1023.12
1020.16 1020.32 1020.47 1020.70 1021.14 1021.50 1021.59 1021.63 1021.75 1021.80 1021.78 1021.83 1021.90 1022.11 1022.42 1022.66 1022.66 1022.87 1023.05 1023.15 1023.26 1023.37 1023.42 1023.49 1023.63 1023.59 1023.43 1023.30 1023.15 1023.01 1023.03 1022.90 1022.16 1022.21 1022.40 1022.39 1023.11 1023.07 1023.17 1023.31 1023.34 1023.28 1023.30
1020.23 1020.30 1020.40 1020.65 1020.82 1020.91 1021.06 1021.56 1021.72 1021.87 1021.86 1021.82 1021.91 1021.94 1022.07 1022.37 1022.70 1022.80 1022.94 1023.09 1023.22 1023.43 1023.55 1023.73 1023.81 1023.77 1023.63 1023.49 1023.39 1023.29 1023.16 1023.07 1022.24 1022.41 1022.39 1022.39 1022.99 1022.99 1023.15 1023.28 1023.33 1023.31 1023.39
1020.35 1020.47 1020.40 1020.53 1020.67 1020.79 1020.94 1021.12 1021.67 1021.76 1021.86 1021.94 1021.96 1022.09 1022.21 1021.88 1021.91 1022.49 1022.84 1022.94 1023.14 1023.32 1023.49 1023.68 1023.80 1023.79 1023.74 1023.69 1023.59 1023.50 1023.40 1022.44 1022.33 1022.26 1022.26 1022.81 1022.89 1022.85 1022.97 1023.14 1023.31 1023.34 1023.39
1020.10 1020.46 1020.44 1020.36 1020.38 1020.59 1020.82 1020.95 1021.09 1021.04 1021.23 1021.30 1021.53 1021.65 1021.79 1021.81 1021.81 1021.86 1022.14 1022.68 1022.92 1023.12 1023.29 1023.47 1023.70 1023.82 1023.85 1023.13 1023.08 1023.48 1022.92 1022.53 1022.47 1022.33 1022.31 1022.89 1022.90 1022.77 1022.87 1023.06 1023.21 1023.30 1023.36
1019.35 1019.83 1020.12 1020.13 1020.24 1020.27 1020.38 1020.52 1020.56 1020.72 1020.90 1020.97 1021.09 1021.36 1021.60 1021.78 1021.92 1022.05 1021.83 1022.12 1022.31 1022.69 1022.63 1022.93 1023.13 1023.32 1023.16 1023.13 1022.87 1022.74 1022.62 1022.67 1022.41 1022.40 1022.53 1023.00 1022.97 1022.73 1022.64 1022.85 1023.00 1023.08 1023.20
1019.11 1019.22 1019.28 1019.41 1019.98 1020.18 1019.93 1020.02 1020.11 1020.31 1020.50 1020.67 1020.87 1021.05 1021.15 1021.45 1021.67 1021.76 1021.83 1021.83 1021.92 1021.76 1022.02 1022.27 1022.35 1022.54 1022.77 1022.91 1022.87 1022.64 1022.57 1022.46 1022.27 1022.31 1022.21 1022.77 1022.92 1022.79 1022.55 1022.60 1022.74 1022.85 1022.88
1018.46 1018.48 1018.63 1018.80 1018.97 1019.51 1019.86 1019.46 1019.59 1019.66 1019.89 1020.02 1020.23 1020.50 1020.77 1020.81 1020.94 1021.11 1021.32 1021.45 1021.55 1021.62 1021.57 1021.58 1021.82 1021.96 1022.18 1022.35 1022.42 1022.47 1022.29 1022.20 1022.09 1022.03 1021.88 1022.22 1022.52 1022.51 1022.39 1022.25 1022.37 1022.48 1022.53
1018.03 1017.82 1017.88 1018.14 1018.42 1018.52 1018.74 1019.08 1018.93 1019.21 1019.04 1019.29 1019.46 1019.69 1020.09 1020.23 1020.47 1020.67 1020.78 1020.97 1021.05 1021.15 1021.22 1021.35 1021.30 1021.41 1021.51 1021.62 1021.70 1021.85 1021.98 1021.87 1021.78 1021.68 1021.58 1021.59 1022.09 1022.20 1022.11 1021.94 1021.84 1021.92 1022.09
1017.84 1017.72 1017.60 1017.69 1017.74 1017.95 1017.95 1018.02 1018.15 1018.46 1018.65 1018.64 1018.82 1019.05 1019.26 1019.62 1019.85 1020.13 1020.27 1020.40 1020.54 1020.75 1020.97 1020.97 1021.03 1021.09 1021.02 1020.97 1021.06 1021.07 1021.09 1021.24 1021.31 1021.28 1021.22 1021.25 1021.19 1021.63 1021.67 1021.61 1021.49 1021.33 1021.41
1017.68 1017.50 1017.38 1017.36 1017.29 1017.27 1017.25 1017.25 1017.27 1017.42 1017.89 1017.99 1018.15 1018.54 1018.80 1018.98 1019.12 1019.29 1019.47 1019.60 1019.81 1020.10 1020.39 1020.55 1020.52 1020.56 1020.58 1020.51 1020.38 1020.26 1020.21 1020.25 1020.25 1020.32 1020.51 1020.57 1020.57 1020.56 1020.75 1020.97 1020.96 1020.89 1020.77
1017.57 1017.30 1016.98 1016.81 1016.60 1016.63 1016.59 1016.69 1016.77 1016.93 1017.20 1017.58 1017.56 1017.59 1017.80 1018.15 1018.38 1018.61 1018.66 1018.73 1019.12 1019.39 1019.48 1019.64 1019.91 1020.16 1020.09 1020.09 1020.16 1019.99 1019.74 1019.55 1019.42 1019.46 1019.24 1019.47 1019.56 1019.72 1019.64 1019.84 1020.20 1020.25 1020.26
1017.55 1017.26 1016.89 1016.62 1016.39 1016.27 1016.22 1016.20 1016.24 1016.23 1016.54 1016.82 1016.94 1017.02 1017.29 1017.68 1017.93 1018.04 1017.93 1017.94 1018.31 1018.57 1018.61 1018.74 1018.80 1019.04 1019.41 1019.38 1019.33 1019.25 1019.22 1018.99 1018.90 1018.54 1018.20 1018.39 1018.53 1018.48 1018.74 1018.82 1019.00 1019.26 1019.46
1017.88 1017.55 1017.07 1016.60 1016.19 1015.97 1015.71 1015.66 1015.64 1015.48 1015.94 1016.15 1016.25 1016.47 1016.74 1017.05 1017.43 1017.40 1017.28 1017.19 1017.48 1017.72 1017.83 1018.02 1018.19 1018.39 1018.49 1019.08 1019.36 1018.83 1018.50 1018.06 1017.80 1017.55 1017.54 1017.17 1016.88 1017.11 1017.56 1017.54 1017.89 1018.12 1018.16
1018.27 1017.94 1017.51 1016.99 1016.41 1015.99 1015.64 1015.36 1015.23 1015.05 1015.10 1015.09 1015.01 1015.50 1016.04 1016.39 1016.73 1017.06 1016.87 1016.84 1016.89 1017.21 1017.42 1017.47 1017.69 1017.69 1017.82 1018.15 1018.40 1018.70 1017.69 1016.50 1015.77 1015.96 1016.00 1015.93 1015.60 1015.57 1015.93 1016.33 1016.45 1016.58 1016.78
1018.81 1018.48 1017.92 1017.44 1016.73 1016.21 1015.84 1015.45 1015.18 1015.18 1015.04 1014.99 1014.87 1014.95 1015.23 1015.65 1015.97 1016.32 1016.53 1016.50 1016.41 1016.58 1016.74 1016.92 1016.94 1017.08 1016.97 1017.22 1017.57 1017.58 1016.89 1015.63 1015.10 1014.75 1014.87 1014.84 1014.83 1014.83 1014.71 1014.99 1015.25 1015.35 1015.38
1019.51 1019.20 1018.63 1018.12 1017.48 1016.79 1015.95 1015.48 1015.29 1014.99 1014.74 1014.52 1014.54 1014.65 1014.80 1014.95 1015.32 1015.52 1015.71 1015.89 1015.98 1016.05 1016.16 1016.20 1016.32 1016.32 1016.46 1016.30 1016.62 1016.54 1016.08 1015.60 1014.95 1014.02 1013.71 1013.95 1013.86 1013.67 1013.73 1013.82 1013.89 1014.01 1014.13
1020.21 1019.83 1019.38 1018.83 1018.30 1017.75 1017.11 1016.25 1015.61 1015.43 1015.09 1014.85 1014.73 1014.73 1014.69 1014.60 1014.59 1014.70 1014.83 1015.01 1015.23 1015.36 1015.41 1015.57 1015.63 1015.71 1015.61 1015.52 1015.38 1015.49 1015.40 1015.13 1015.07 1014.82 1013.55 1013.16 1012.98 1012.49 1012.55 1012.55 1012.61 1012.82 1012.95
1020.77 1020.45 1019.96 1019.36 1019.07 1018.64 1018.05 1017.58 1017.10 1016.69 1016.20 1015.76 1015.62 1015.23 1014.84 1014.47 1014.34 1014.31 1014.27 1014.21 1014.19 1014.44 1014.59 1014.69 1014.77 1014.78 1014.78 1014.67 1014.44 1014.34 1014.22 1014.14 1013.72 1013.79 1013.29 1012.56 1012.02 1011.72 1011.61 1011.50 1011.24 1011.36 1011.52
Wind_Speed
6 9 8 11 13 12 12 10 10 9 9 9 10 11 10 10 9 7 10 13 13 11 12 12 12 13 11 13 15 15 16 17 19 17 18 18 18 16 15 13 12 13 15
8 9 8 10 12 12 12 11 10 9 9 7 7 10 9 9 8 11 9 10 9 11 12 12 10 11 9 12 13 14 15 16 17 13 11 16 16 15 14 13 13 13 13
8 8 10 8 11 11 11 10 9 9 10 7 6 10 11 10 8 9 9 9 8 10 11 11 9 7 9 10 10 13 13 14 13 9 5 8 12 13 13 11 12 12 11
10 9 8 6 9 11 10 9 8 8 7 8 7 7 9 9 8 9 9 7 8 8 9 9 9 4 7 9 7 11 11 12 6 2 6 7 9 12 11 10 10 11 9
10 9 9 9 9 10 10 9 6 7 7 6 8 9 7 6 6 9 7 6 6 7 8 10 5 6 7 6 6 11 11 10 5 4 7 7 6 10 10 7 10 8 7
9 8 10 9 10 11 10 8 8 8 8 7 5 8 9 7 6 5 7 7 6 5 6 9 4 6 6 5 3 13 11 9 6 6 5 6 7 8 8 8 8 7 5
9 8 10 8 8 8 9 9 8 7 9 7 6 7 10 8 8 6 6 6 6 7 7 5 5 3 3 4 3 12 11 6 5 5 5 3 7 6 6 6 6 6 6
7 7 7 8 7 8 8 8 7 7 7 8 6 8 9 9 8 7 7 6 5 5 6 4 2 1 0 2 4 8 8 7 4 4 4 2 7 6 5 5 5 5 5
6 7 7 8 9 6 6 6 7 7 7 8 6 8 9 9 9 8 8 6 7 7 5 5 4 4 2 1 2 3 6 4 4 2 1 2 7 5 5 5 5 5 6
6 7 7 8 8 9 9 7 6 6 6 8 8 7 8 7 8 9 8 8 8 8 7 5 5 5 4 3 1 3 5 5 6 4 3 2 5 5 6 6 6 6 6
6 7 8 8 9 9 8 6 7 7 6 6 7 7 7 7 9 9 8 5 9 9 8 8 7 6 3 3 4 2 5 5 5 4 3 7 6 7 7 7 7 7 7
9 8 9 10 10 9 7 9 9 8 8 9 9 9 8 8 8 7 7 8 9 10 10 10 8 5 5 6 5 4 6 5 5 5 4 5 7 9 8 8 8 9 9
7 8 11 11 11 11 9 7 5 5 6 6 10 9 8 7 6 7 6 7 8 9 7 9 8 8 8 6 6 6 6 6 5 5 5 6 9 10 10 10 10 10 10
9 11 11 12 11 12 9 8 8 7 7 7 8 11 8 6 7 7 6 7 8 7 9 8 6 8 9 9 9 9 9 7 5 4 6 7 10 12 12 12 11 12 12
11 11 11 12 13 12 12 9 9 9 8 10 9 11 9 9 9 8 8 8 8 8 8 9 9 9 9 10 10 10 10 10 10 6 6 9 11 13 14 14 14 13 14
12 13 11 11 13 12 12 13 10 10 11 10 10 11 14 10 9 9 9 9 9 9 9 9 9 9 9 10 10 11 11 11 11 11 8 7 11 13 16 17 17 16 15
12 14 13 12 10 13 14 13 11 11 10 10 10 13 14 13 13 12 9 9 9 9 12 10 11 10 10 10 12 11 10 12 11 12 10 9 8 14 15 19 20 18 18
13 13 13 11 12 12 13 11 10 10 10 11 10 10 14 15 16 13 11 11 11 9 9 10 10 10 11 11 11 10 10 11 13 13 12 10 10 9 12 19 20 21 21
11 12 12 12 13 13 12 10 11 11 9 9 9 10 14 15 15 14 11 11 12 10 10 10 10 11 11 11 11 11 11 11 12 12 14 14 15 13 10 13 19 20 20
10 10 11 10 12 11 9 9 8 9 8 9 10 10 13 10 14 13 13 14 12 11 11 11 14 12 11 11 11 12 11 11 12 12 14 13 14 16 15 15 11 12 21
9 10 11 11 10 7 7 7 8 9 8 10 10 12 11 10 11 15 12 13 12 12 13 13 13 14 11 10 7 9 12 15 16 13 12 12 16 15 16 14 10 9 10
11 12 11 11 10 8 6 6 7 6 7 8 8 10 13 11 11 11 12 12 13 10 15 14 14 11 11 10 7 7 5 10 12 13 12 13 18 12 15 16 15 15 14
12 12 12 12 12 8 9 7 7 6 7 7 7 8 9 11 11 11 12 11 11 9 9 12 13 13 10 9 15 8 4 7 5 7 12 11 13 11 12 14 16 16 17
11 11 12 13 13 12 9 5 7 6 7 6 6 7 7 10 12 12 12 12 11 9 10 11 10 12 12 11 5 11 16 14 7 10 7 9 10 12 15 11 13 15 17
10 10 11 13 15 15 13 12 5 5 5 5 6 8 9 9 10 12 12 12 11 9 11 12 12 12 11 11 11 5 11 11 14 12 12 11 10 10 10 12 11 12 15
9 10 11 13 15 15 14 14 13 11 9 7 9 8 7 6 6 8 12 12 11 11 11 11 13 14 12 13 11 12 10 6 9 10 12 15 16 11 10 11 13 12 12
Wind_Direction
151 132 150 144 141 134 122 124 115 112 111 110 113 113 113 110 104 79 94 79 86 94 93 96 86 72 67 84 80 72 74 71 74 76 76 69 66 65 65 55 62 69 71
142 143 147 150 142 141 136 137 130 124 116 116 122 126 120 115 116 99 99 98 105 111 113 104 100 89 94 84 84 81 85 80 77 65 78 84 64 59 60 60 61 76 76
142 140 161 148 146 147 136 138 139 140 131 118 138 134 129 117 120 125 117 117 110 118 118 113 102 84 72 100 99 95 96 88 83 85 49 74 69 53 61 61 74 80 85
148 151 153 146 153 142 142 146 149 140 141 139 135 130 121 132 147 132 120 130 116 124 126 127 123 72 69 82 121 111 107 99 102 97 69 60 68 60 56 71 77 82 94
155 156 143 153 148 147 151 156 161 154 154 169 167 147 148 145 142 136 139 128 128 130 134 138 113 90 66 58 102 133 118 115 110 101 71 57 51 58 63 72 97 91 51
157 164 143 158 156 157 158 170 169 169 164 171 196 161 144 153 159 153 156 146 143 144 150 152 106 77 58 33 73 136 128 128 192 80 74 78 67 66 75 86 94 96 87
166 169 164 166 164 163 170 170 167 166 173 172 208 198 160 160 170 171 172 170 159 169 164 169 72 54 52 20 87 136 136 145 117 110 80 78 80 85 91 102 112 122 114
177 176 174 173 177 175 171 169 172 177 174 165 195 168 170 167 179 203 185 188 190 201 186 187 183 229 76 48 79 135 155 167 199 128 139 121 109 115 116 119 130 132 131
194 191 190 189 189 197 198 192 198 198 186 179 171 171 178 192 184 199 185 214 198 217 213 196 223 247 266 14 114 177 166 195 236 148 167 183 141 137 142 144 154 150 154
204 213 209 206 206 208 205 201 204 208 207 199 189 176 180 201 210 201 192 208 195 198 220 213 235 252 264 301 308 120 145 210 235 201 212 99 169 167 165 164 171 168 171
217 227 226 224 223 227 230 212 211 214 218 219 208 195 183 213 195 200 208 208 189 194 203 213 230 240 256 278 303 233 213 235 230 232 239 140 200 190 182 181 186 183 187
228 223 235 231 229 230 230 230 224 219 220 213 221 217 221 219 216 214 199 197 210 200 206 206 225 227 233 243 222 232 244 253 249 251 253 181 218 212 193 197 197 195 196
242 228 226 226 233 234 232 230 226 225 227 225 220 219 224 229 217 219 218 205 215 205 224 212 213 232 241 256 249 247 250 253 256 257 252 215 234 233 206 203 208 206 201
258 256 244 229 225 231 236 227 234 228 223 225 226 221 214 217 227 236 233 226 220 217 225 233 237 238 242 244 252 256 254 257 255 253 250 208 241 245 241 215 215 214 210
278 268 254 243 232 225 230 235 238 235 226 230 226 222 219 222 219 222 229 230 229 231 228 226 233 237 238 244 246 248 252 254 257 254 254 187 229 239 245 236 222 221 220
292 286 279 252 244 240 233 232 231 232 235 227 227 224 220 224 226 225 223 227 231 233 235 238 237 237 241 242 245 248 252 255 256 258 254 246 217 236 239 245 237 226 224
284 286 287 286 259 248 243 240 232 232 230 232 232 227 223 221 226 229 231 228 228 232 239 237 240 245 249 244 245 249 247 250 254 255 253 249 240 218 233 239 244 241 229
301 289 285 276 261 251 248 245 241 238 236 234 231 230 232 228 226 227 231 232 229 225 229 237 238 242 244 246 250 247 243 244 244 246 249 247 242 247 216 231 237 241 242
298 293 286 277 265 260 252 250 246 247 237 239 238 234 228 230 229 231 232 234 228 228 228 228 237 243 249 248 254 256 255 251 248 246 243 241 243 241 240 222 224 232 237
312 299 291 285 280 273 261 252 248 245 239 238 236 235 235 229 231 230 236 235 227 228 231 227 229 228 236 248 249 252 256 257 255 249 245 242 243 241 236 235 224 229 229
352 334 319 301 290 276 252 244 241 245 233 240 236 238 234 228 223 233 239 241 230 227 233 233 233 234 233 236 261 259 261 255 252 249 245 239 239 234 233 228 221 227 226
5 359 351 332 312 291 259 250 251 256 246 253 249 236 242 230 222 231 242 244 242 233 240 239 236 235 238 222 205 233 271 260 238 236 238 238 238 232 229 231 226 222 222
18 9 4 0 354 333 296 270 254 250 259 260 253 253 249 237 230 226 235 245 243 227 230 237 237 223 233 221 213 223 226 247 291 229 232 235 239 237 236 230 231 229 225
21 16 17 17 16 5 359 281 264 268 271 281 280 277 263 247 243 239 235 237 244 238 230 237 233 230 228 237 205 223 242 270 269 279 216 232 231 228 233 229 230 232 229
24 21 24 28 28 23 25 17 352 314 310 307 304 296 281 267 252 250 237 239 239 237 236 237 237 230 231 231 229 194 227 235 245 253 266 258 232 225 222 228 226 227 227
34 27 28 28 31 27 29 30 30 27 19 22 6 346 323 300 288 262 257 253 244 239 235 236 235 236 231 234 235 239 226 218 216 230 242 249 260 256 241 232 227 224 226